Regional Weather Roundup
Issued by NWS

Home | Current Version | Previous Version | Graphics & Text | Print | Product List | Glossary On
Versions: 1 2 3 4 5 6 7 8 9 10 11 12 13 14 15 16 17 18 19 20 21 22 23 24 25 26 27 28 29 30 31 32 33 34 35 36 37 38 39 40 41 42 43 44 45 46 47 48 49 50
000
ASUS43 KLOT 260203
RWRIL

ILLINOIS REGIONAL WEATHER ROUNDUP
NATIONAL WEATHER SERVICE CHICAGO/ROMEOVILLE IL
900 PM CDT SUN JUN 25 2017

NOTE: "FAIR" INDICATES FEW OR NO CLOUDS BELOW 12,000 FEET WITH NO
SIGNIFICANT WEATHER AND/OR OBSTRUCTIONS TO VISIBILITY.

* THESE STATIONS ARE NOT UNDER NWS QUALITY CONTROL. THEY ALSO MAY NOT
  REPORT WEATHER SUCH AS PRECIPITATION OR FOG.

ILZ001-002-007-009-015-016-024-260300-
NORTHWEST ILLINOIS

CITY           SKY/WX    TMP DP  RH WIND       PRES   REMARKS
MOLINE         CLEAR     63  48  58 W5        30.14F
STERLING*      CLEAR     59  51  75 W5        30.14F
SAVANNA*       CLEAR     64  50  60 W5        30.13F
$$

ILZ003-004-008-010-011-017-018-260300-
NORTH CENTRAL ILLINOIS

CITY           SKY/WX    TMP DP  RH WIND       PRES   REMARKS
ROCKFORD       MOCLDY    62  50  64 W5        30.13S
FREEPORT*      PTCLDY    59  49  70 W3        30.15S
ROCHELLE*      CLEAR     58  50  73 W6        30.14S
DE KALB*       PTCLDY    60  49  66 W9        30.13S
PERU*          CLEAR     61  48  62 W8        30.15S
$$

ILZ005-006-012>014-019>023-260300-
NORTHEAST ILLINOIS

CITY           SKY/WX    TMP DP  RH WIND       PRES   REMARKS
CHICAGO-OHARE  PTCLDY    64  48  56 W15       30.10R
CHICAGO-MIDWAY PTCLDY    65  49  56 W12       30.10S
AURORA         PTCLDY    62  49  62 W14       30.13S
LANSING*       CLEAR     63  46  52 W9        30.11R
JOLIET*        CLEAR     64  49  58 W8        30.12S
WAUKEGAN       PTCLDY    62  50  64 VRB6      30.08S
DUPAGE AIRPORT CLEAR     61  50  67 W8        30.10S
WHEELING       CLEAR     63  50  62 W10       30.11S
MORRIS*        CLEAR     61  48  62 W10       30.12R
ROMEOVILLE*    CLEAR     62  46  56 NW9       30.12S
NORTHERLY ISL    N/A     65  46  50 W9          N/A
$$

LMZ740>746-260300-
SOUTHERN LAKE MICHIGAN

STATION/POSITION SKY/WX   TEMP    WIND        PRES    VSBY  WAVE
                          AIR SEA DIR/SP/G                  HT/PER
                          (F)     (DEG/KT/KT) (MB)    (MI)  (FT/S)
SOUTHERN BUOY              63 62  300/ 10/ 12 1017.8          1/ 3
WILMETTE HARBOR            65 64  280/ 16/ 19   N/A           2/ 3
HARRISON CRIB              66     300/ 19/ 21   N/A
BURNHAM HARBOR             65                   N/A
CALUMET HARBOR             65     260/  6/ 13 1018.5R
BURNS HARBOR               67     270/ 20/ 23 1019.0R
MICHIGAN CITY              66     270/ 18/ 19   N/A
MICHIGAN CITY 6N           66 67  290/ 17/ 21   N/A           3/ 4
ST. JOSEPH                 67 69  300/ 14/ 19 1018.1F         2/ 4
$$

ILZ025>027-034>036-040-047-049-050-058-095>099-260300-
WEST-CENTRAL ILLINOIS

CITY           SKY/WX    TMP DP  RH WIND       PRES   REMARKS
QUINCY         CLEAR     64  47  53 NW6       30.18S
GALESBURG*     CLEAR     60  49  66 CALM      30.17S
MACOMB*        CLEAR     60  49  67 W7        30.19S
JACKSONVILLE*  PTCLDY    64  49  58 W5        30.17F
PITTSFIELD*    CLEAR     66  50  57 CALM      30.19S
$$

ILZ028>032-037-038-041>044-048-051>054-059>061-260300-
CENTRAL ILLINOIS

CITY           SKY/WX    TMP DP  RH WIND       PRES   REMARKS
PONTIAC        CLEAR     64  50  61 W7        30.15S
BLOOMINGTON    CLEAR     64  50  60 NW8       30.16S
DECATUR        CLEAR     67  45  45 NW8       30.16S
PEORIA         CLEAR     63  50  62 CALM      30.15S
LACON*         CLEAR     63  50  63 NW5       30.14F
LINCOLN*       PTCLDY    67  49  51 CALM      30.16S
SPRINGFIELD    CLEAR     65  48  54 W6        30.17S
TAYLORVILLE    CLEAR     63  47  55 W6        30.17F
$$

ILZ033-039-045-046-055>057-062-063-260300-
EAST-CENTRAL ILLINOIS

CITY           SKY/WX    TMP DP  RH WIND       PRES   REMARKS
CHAMPAIGN      CLEAR     63  46  54 W6        30.15R
RANTOUL*       CLEAR     66  51  57 NW7       30.15R
MATTOON        CLEAR     61  50  67 W7        30.15R
PARIS*         CLEAR     63  50  63 NW7       30.15S
$$

ILZ079-100>102-260300-
SOUTHWEST ILLINOIS

CITY           SKY/WX    TMP DP  RH WIND       PRES   REMARKS
ALTON          PTCLDY    68  52  56 MISG      30.18S
BELLEVILLE     CLEAR     71  47  42 NW8       30.17S
CAHOKIA*       PTCLDY    75  42  30 NW17      30.16S
SPARTA*        PTCLDY    73  49  42 CALM      30.17S
$$

ILZ064>066-069>071-074>076-080>082-084>086-088>090-092>094-260300-
SOUTH-CENTRAL ILLINOIS

CITY           SKY/WX    TMP DP  RH WIND       PRES   REMARKS
CARBONDALE     PTCLDY    72  55  55 NW3       30.15S
CAIRO*         CLEAR     72  61  66 CALM      30.15S
EFFINGHAM*     CLEAR     69  48  47 W8        30.18S
MARION         PTCLDY    68  55  64 CALM      30.16R
MT. VERNON     CLOUDY    71  48  43 CALM      30.16R
CENTRALIA*     PTCLDY    72  50  46 N10       30.15S
SALEM*         CLEAR     70  47  43 NW6       30.16S
METROPOLIS*    CLEAR     70  60  69 CALM      30.15S
$$

ILZ067-068-072-073-078-083-087-091-260300-
SOUTHEAST ILLINOIS

CITY           SKY/WX    TMP DP  RH WIND       PRES   REMARKS
LAWRENCEVILLE  CLEAR     67  54  63 NW7       30.14R
FLORA*         CLEAR     71  47  42 NW7       30.16S
FAIRFIELD*     PTCLDY    71  47  43 CALM      30.14S
HARRISBURG*    PTCLDY    69  62  80 CALM      30.15S
ROBINSON*      CLEAR     64  50  61 NW6       30.15S
CARMI*         PTCLDY    66  60  79 NW5       30.13S
$$

ABBREVIATIONS USED IN REMARKS
   TC - TEMPERATURE IN CELSIUS
  WCI - WIND CHILL INDEX
   HX - HEAT INDEX
  VSB - VISIBILITY
$$




USA.gov is the U.S. government's official web portal to all federal, state and local government web resources and services.